BLY9114 EGGP-LFBE

Flight info

Callsign BLY9114
Flight time 1h 26m
Altitude 35000
Route NANTI L8 HON UN859 SOPIL DCT MAKOX DCT BUGUS
Aircraft A320/M-SDE3FGHIRWY/LB1

Departure

Time 2026-04-24 21:54
Airport Liverpool John Lennon Airport (EGGP)

Arrival

Time 2026-04-24 23:21
Airport Bergerac Dordogne-Périgord airport (LFBE)
Time Latitude Longitude Altitude Speed Heading
2026-04-24 21:15 53.33556 -2.85654 90 ft 0 kts 175°
2026-04-24 21:45 53.33557 -2.85654 85 ft 1 kts 175°
2026-04-24 21:46 53.33570 -2.85655 90 ft 3 kts 176°
2026-04-24 21:46 53.33589 -2.85657 90 ft 3 kts 188°
2026-04-24 21:46 53.33604 -2.85648 89 ft 3 kts 241°
2026-04-24 21:46 53.33609 -2.85623 90 ft 1 kts 265°
2026-04-24 21:47 53.33610 -2.85600 89 ft 2 kts 265°
2026-04-24 21:47 53.33611 -2.85587 89 ft 0 kts 265°
2026-04-24 21:48 53.33610 -2.85594 89 ft 3 kts 265°
2026-04-24 21:49 53.33606 -2.85694 88 ft 11 kts 265°
2026-04-24 21:49 53.33599 -2.85834 85 ft 13 kts 265°
2026-04-24 21:49 53.33594 -2.85998 85 ft 15 kts 269°
2026-04-24 21:49 53.33587 -2.86184 85 ft 16 kts 265°
2026-04-24 21:50 53.33536 -2.86315 88 ft 14 kts 199°
2026-04-24 21:50 53.33465 -2.86349 86 ft 11 kts 239°
2026-04-24 21:50 53.33460 -2.86489 83 ft 14 kts 265°
2026-04-24 21:50 53.33449 -2.86660 72 ft 14 kts 252°
2026-04-24 21:51 53.33408 -2.86722 74 ft 0 kts 201°
2026-04-24 21:52 53.33407 -2.86722 74 ft 0 kts 201°
2026-04-24 21:52 53.33372 -2.86732 74 ft 10 kts 179°
2026-04-24 21:53 53.33308 -2.86677 70 ft 11 kts 141°
2026-04-24 21:53 53.33290 -2.86592 73 ft 0 kts 85°
2026-04-24 21:54 53.33295 -2.86486 65 ft 38 kts 85°
2026-04-24 21:54 53.33336 -2.85600 82 ft 108 kts 85°
2026-04-24 21:54 53.33411 -2.84042 123 ft 155 kts 85°
2026-04-24 21:54 53.33497 -2.82233 769 ft 155 kts 86°
2026-04-24 21:55 53.33592 -2.80448 1486 ft 153 kts 89°
2026-04-24 21:55 53.33389 -2.78716 1998 ft 158 kts 123°
2026-04-24 21:55 53.32502 -2.77385 2240 ft 177 kts 148°
2026-04-24 21:55 53.31378 -2.76188 2473 ft 196 kts 148°
2026-04-24 21:56 53.30208 -2.74942 2921 ft 202 kts 147°
2026-04-24 21:56 53.28942 -2.73589 3178 ft 226 kts 147°
2026-04-24 21:56 53.27544 -2.72085 3579 ft 249 kts 147°
2026-04-24 21:56 53.26030 -2.70453 3949 ft 259 kts 147°
2026-04-24 21:57 53.24503 -2.68806 3997 ft 260 kts 147°
2026-04-24 21:57 53.22997 -2.67183 4001 ft 259 kts 147°
2026-04-24 21:57 53.21483 -2.65552 4006 ft 259 kts 147°
2026-04-24 21:57 53.19967 -2.63918 4004 ft 259 kts 147°
2026-04-24 21:58 53.18453 -2.62286 4004 ft 259 kts 147°
2026-04-24 21:58 53.16959 -2.60598 4003 ft 259 kts 144°
2026-04-24 21:58 53.15489 -2.58854 4005 ft 259 kts 144°
2026-04-24 21:58 53.14024 -2.57096 4003 ft 259 kts 144°
2026-04-24 21:59 53.12551 -2.55329 4215 ft 264 kts 144°
2026-04-24 21:59 53.11062 -2.53547 5163 ft 265 kts 144°
2026-04-24 21:59 53.09553 -2.51750 6036 ft 269 kts 144°
2026-04-24 21:59 53.08016 -2.49931 6853 ft 274 kts 144°
2026-04-24 22:00 53.06444 -2.48079 7610 ft 280 kts 144°
2026-04-24 22:00 53.04841 -2.46194 8383 ft 284 kts 144°
2026-04-24 22:00 53.03214 -2.44282 9159 ft 289 kts 144°
2026-04-24 22:00 53.01561 -2.42340 9953 ft 293 kts 144°
2026-04-24 22:01 52.99879 -2.40359 10600 ft 302 kts 144°
2026-04-24 22:01 52.98101 -2.38267 10814 ft 325 kts 144°
2026-04-24 22:01 52.96211 -2.36049 11217 ft 338 kts 144°
2026-04-24 22:01 52.94277 -2.33781 11842 ft 343 kts 144°
2026-04-24 22:02 52.92955 -2.32237 12310 ft 345 kts 144°
2026-04-24 22:02 52.90988 -2.29943 13009 ft 347 kts 144°
2026-04-24 22:02 52.89005 -2.27633 13703 ft 350 kts 145°
2026-04-24 22:02 52.86997 -2.25295 14356 ft 352 kts 144°
2026-04-24 22:03 52.84966 -2.22933 14969 ft 354 kts 144°
2026-04-24 22:03 52.82942 -2.20576 15561 ft 357 kts 144°
2026-04-24 22:03 52.80904 -2.18203 16161 ft 359 kts 144°
2026-04-24 22:03 52.78852 -2.15823 16755 ft 362 kts 144°
2026-04-24 22:04 52.76784 -2.13435 17339 ft 364 kts 144°
2026-04-24 22:04 52.74700 -2.11030 17924 ft 367 kts 144°
2026-04-24 22:04 52.72602 -2.08607 18526 ft 369 kts 144°
2026-04-24 22:04 52.70436 -2.06107 19034 ft 372 kts 144°
2026-04-24 22:05 52.68299 -2.03641 19477 ft 377 kts 144°
2026-04-24 22:05 52.66137 -2.01150 19923 ft 382 kts 145°
2026-04-24 22:05 52.63939 -1.98622 20339 ft 388 kts 145°
2026-04-24 22:05 52.61709 -1.96063 20748 ft 394 kts 146°
2026-04-24 22:06 52.59445 -1.93468 21159 ft 399 kts 146°
2026-04-24 22:06 52.57128 -1.90810 21555 ft 403 kts 146°
2026-04-24 22:06 52.54815 -1.88161 21957 ft 408 kts 146°
2026-04-24 22:06 52.52474 -1.85482 22363 ft 412 kts 147°
2026-04-24 22:07 52.50107 -1.82776 22756 ft 417 kts 147°
2026-04-24 22:07 52.47711 -1.80044 23162 ft 421 kts 148°
2026-04-24 22:07 52.45288 -1.77285 23557 ft 426 kts 148°
2026-04-24 22:07 52.42844 -1.74507 23929 ft 430 kts 148°
2026-04-24 22:08 52.40365 -1.71703 24280 ft 433 kts 148°
2026-04-24 22:08 52.37885 -1.68905 24660 ft 435 kts 149°
2026-04-24 22:08 52.35264 -1.66443 25027 ft 434 kts 158°
2026-04-24 22:08 52.32455 -1.64678 25404 ft 432 kts 166°
2026-04-24 22:09 52.29581 -1.63183 25773 ft 435 kts 166°
2026-04-24 22:09 52.26691 -1.61685 26136 ft 436 kts 166°
2026-04-24 22:09 52.23764 -1.60163 26562 ft 437 kts 166°
2026-04-24 22:09 52.20858 -1.58646 26947 ft 439 kts 165°
2026-04-24 22:10 52.17946 -1.57127 27313 ft 441 kts 165°
2026-04-24 22:10 52.15023 -1.55605 27674 ft 443 kts 165°
2026-04-24 22:10 52.12078 -1.54078 28035 ft 445 kts 165°
2026-04-24 22:10 52.09124 -1.52550 28397 ft 447 kts 165°
2026-04-24 22:11 52.06149 -1.51016 28757 ft 449 kts 165°
2026-04-24 22:11 52.03161 -1.49480 29109 ft 451 kts 165°
2026-04-24 22:11 52.00164 -1.47943 29489 ft 453 kts 165°
2026-04-24 22:11 51.97153 -1.46400 29848 ft 455 kts 166°
2026-04-24 22:12 51.94130 -1.44848 30166 ft 458 kts 166°
2026-04-24 22:12 51.91080 -1.43281 30469 ft 460 kts 166°
2026-04-24 22:12 51.88035 -1.41717 30856 ft 459 kts 166°
2026-04-24 22:12 51.84991 -1.40156 31284 ft 458 kts 166°
2026-04-24 22:13 51.81958 -1.38606 31712 ft 456 kts 166°
2026-04-24 22:13 51.78931 -1.37062 32133 ft 455 kts 166°
2026-04-24 22:13 51.75926 -1.35527 32642 ft 451 kts 166°
2026-04-24 22:13 51.72943 -1.34002 33112 ft 449 kts 166°
2026-04-24 22:14 51.69966 -1.32483 33568 ft 448 kts 166°
2026-04-24 22:14 51.67003 -1.30979 34006 ft 446 kts 166°
2026-04-24 22:14 51.64043 -1.29479 34420 ft 445 kts 166°
2026-04-24 22:14 51.61056 -1.27967 34778 ft 444 kts 166°
2026-04-24 22:15 51.58111 -1.26484 35112 ft 443 kts 166°
2026-04-24 22:15 51.55176 -1.25008 35243 ft 442 kts 166°
2026-04-24 22:15 51.52232 -1.23521 35273 ft 443 kts 166°
2026-04-24 22:16 51.46460 -1.19994 35271 ft 446 kts 159°
2026-04-24 22:16 51.40806 -1.15828 35266 ft 447 kts 159°
2026-04-24 22:17 51.35169 -1.11682 35264 ft 447 kts 159°
2026-04-24 22:17 51.29531 -1.07548 35271 ft 444 kts 159°
2026-04-24 22:18 51.23917 -1.03440 35278 ft 444 kts 159°
2026-04-24 22:18 51.18258 -0.99312 35276 ft 454 kts 159°
2026-04-24 22:19 51.12452 -0.95103 35274 ft 461 kts 159°
2026-04-24 22:19 51.06535 -0.90814 35265 ft 466 kts 159°
2026-04-24 22:20 51.00628 -0.86541 35262 ft 467 kts 159°
2026-04-24 22:20 50.94721 -0.82265 35256 ft 467 kts 159°
2026-04-24 22:21 50.88804 -0.78018 35259 ft 467 kts 159°
2026-04-24 22:21 50.83065 -0.73182 35264 ft 470 kts 150°
2026-04-24 22:22 50.77573 -0.67574 35264 ft 470 kts 150°
2026-04-24 22:22 50.72079 -0.61989 35266 ft 470 kts 150°
2026-04-24 22:23 50.66581 -0.56428 35257 ft 469 kts 150°
2026-04-24 22:23 50.61083 -0.50872 35264 ft 469 kts 150°
2026-04-24 22:24 50.55599 -0.45339 35266 ft 468 kts 150°
2026-04-24 22:24 50.50113 -0.39823 35259 ft 468 kts 150°
2026-04-24 22:25 50.44625 -0.34339 35258 ft 467 kts 150°
2026-04-24 22:25 50.39097 -0.28834 35249 ft 467 kts 150°
2026-04-24 22:26 50.33619 -0.23371 35257 ft 467 kts 150°
2026-04-24 22:26 50.28152 -0.17922 35252 ft 466 kts 150°
2026-04-24 22:27 50.22674 -0.12491 35249 ft 466 kts 150°
2026-04-24 22:27 50.17195 -0.07096 35244 ft 466 kts 150°
2026-04-24 22:28 50.11694 -0.01753 35240 ft 464 kts 154°
2026-04-24 22:28 50.05710 0.01708 35229 ft 458 kts 168°
2026-04-24 22:29 49.97462 0.04937 35223 ft 460 kts 168°
2026-04-24 22:29 49.91255 0.07371 35214 ft 460 kts 168°
2026-04-24 22:30 49.85047 0.09815 35216 ft 460 kts 168°
2026-04-24 22:30 49.78791 0.12262 35219 ft 461 kts 168°
2026-04-24 22:31 49.72575 0.14683 35219 ft 461 kts 168°
2026-04-24 22:31 49.66362 0.17098 35225 ft 461 kts 168°
2026-04-24 22:32 49.60156 0.19589 35228 ft 461 kts 168°
2026-04-24 22:32 49.53950 0.22119 35233 ft 461 kts 168°
2026-04-24 22:33 49.47751 0.24628 35225 ft 461 kts 168°
2026-04-24 22:33 49.41548 0.27100 35229 ft 461 kts 168°
2026-04-24 22:34 49.35340 0.29567 35235 ft 461 kts 168°
2026-04-24 22:34 49.29138 0.32044 35227 ft 461 kts 167°
2026-04-24 22:35 49.22952 0.34632 35221 ft 461 kts 167°
2026-04-24 22:35 49.16774 0.37284 35215 ft 461 kts 166°
2026-04-24 22:36 49.10558 0.39940 35211 ft 461 kts 167°
2026-04-24 22:36 49.04376 0.42521 35204 ft 461 kts 167°
2026-04-24 22:37 48.98184 0.45081 35199 ft 462 kts 167°
2026-04-24 22:37 48.91973 0.47657 35191 ft 463 kts 167°
2026-04-24 22:38 48.85713 0.50271 35191 ft 464 kts 166°
2026-04-24 22:38 48.79478 0.52860 35189 ft 465 kts 166°
2026-04-24 22:39 48.73228 0.55384 35199 ft 465 kts 167°
2026-04-24 22:39 48.66959 0.57807 35200 ft 465 kts 168°
2026-04-24 22:40 48.60690 0.60219 35197 ft 465 kts 167°
2026-04-24 22:40 48.54424 0.62659 35194 ft 465 kts 167°
2026-04-24 22:41 48.48163 0.65135 35197 ft 465 kts 167°
2026-04-24 22:41 48.41912 0.67694 35187 ft 465 kts 166°
2026-04-24 22:42 48.35665 0.70256 35186 ft 465 kts 167°
2026-04-24 22:42 48.29414 0.72792 35184 ft 465 kts 167°
2026-04-24 22:43 48.23154 0.75303 35184 ft 465 kts 167°
2026-04-24 22:43 48.16887 0.77771 35176 ft 465 kts 167°
2026-04-24 22:44 48.10584 0.80236 35173 ft 465 kts 167°
2026-04-24 22:44 48.04318 0.82687 35167 ft 465 kts 167°
2026-04-24 22:45 47.98050 0.85144 35169 ft 466 kts 167°
2026-04-24 22:45 47.91776 0.87597 35156 ft 467 kts 167°
2026-04-24 22:46 47.85464 0.90052 35146 ft 468 kts 167°
2026-04-24 22:46 47.79144 0.92496 35135 ft 468 kts 167°
2026-04-24 22:47 47.72834 0.94929 35143 ft 468 kts 167°
2026-04-24 22:47 47.66525 0.97364 35146 ft 469 kts 167°
2026-04-24 22:48 47.60214 0.99794 35146 ft 469 kts 167°
2026-04-24 22:48 47.53901 1.02222 35144 ft 469 kts 167°
2026-04-24 22:49 47.47586 1.04639 35146 ft 469 kts 167°
2026-04-24 22:49 47.41185 1.06362 35133 ft 456 kts 180°
2026-04-24 22:50 47.34956 1.06259 35134 ft 444 kts 183°
2026-04-24 22:50 47.28789 1.06107 35131 ft 443 kts 183°
2026-04-24 22:51 47.22626 1.05959 35134 ft 443 kts 183°
2026-04-24 22:51 47.16466 1.05819 35128 ft 443 kts 183°
2026-04-24 22:52 47.10311 1.05675 35134 ft 442 kts 183°
2026-04-24 22:52 47.04159 1.05528 35140 ft 443 kts 183°
2026-04-24 22:53 46.97991 1.05991 35143 ft 444 kts 178°
2026-04-24 22:53 46.91833 1.06684 35144 ft 444 kts 178°
2026-04-24 22:54 46.85673 1.07383 35149 ft 444 kts 178°
2026-04-24 22:54 46.79518 1.08069 35151 ft 444 kts 178°
2026-04-24 22:55 46.73363 1.08741 35149 ft 443 kts 178°
2026-04-24 22:55 46.70283 1.09075 34999 ft 444 kts 178°
2026-04-24 22:55 46.67208 1.09413 34755 ft 443 kts 178°
2026-04-24 22:56 46.64147 1.09751 34513 ft 441 kts 178°
2026-04-24 22:56 46.61087 1.10088 34269 ft 440 kts 178°
2026-04-24 22:56 46.58037 1.10424 34028 ft 439 kts 178°
2026-04-24 22:56 46.55001 1.10756 33737 ft 436 kts 178°
2026-04-24 22:57 46.51984 1.11086 33465 ft 433 kts 178°
2026-04-24 22:57 46.48983 1.11418 33196 ft 431 kts 178°
2026-04-24 22:57 46.45999 1.11749 32930 ft 429 kts 178°
2026-04-24 22:57 46.42992 1.12078 32632 ft 425 kts 178°
2026-04-24 22:58 46.40086 1.12395 32155 ft 422 kts 178°
2026-04-24 22:58 46.38115 1.12610 31828 ft 421 kts 178°
2026-04-24 22:58 46.35203 1.12929 31344 ft 418 kts 178°
2026-04-24 22:58 46.32315 1.13243 30872 ft 415 kts 178°
2026-04-24 22:59 46.29441 1.13555 30400 ft 413 kts 178°
2026-04-24 22:59 46.26583 1.13862 29892 ft 411 kts 178°
2026-04-24 22:59 46.20940 1.14464 28986 ft 403 kts 178°
2026-04-24 23:00 46.18158 1.14763 28553 ft 399 kts 178°
2026-04-24 23:00 46.15396 1.15061 28121 ft 396 kts 177°
2026-04-24 23:00 46.12653 1.15359 27720 ft 393 kts 177°
2026-04-24 23:00 46.09937 1.15654 27298 ft 391 kts 178°
2026-04-24 23:01 46.07232 1.15946 26898 ft 388 kts 177°
2026-04-24 23:01 46.04550 1.16236 26499 ft 385 kts 177°
2026-04-24 23:01 46.01884 1.16525 26106 ft 383 kts 177°
2026-04-24 23:01 45.99233 1.16809 25700 ft 381 kts 177°
2026-04-24 23:02 45.96601 1.17089 25297 ft 379 kts 177°
2026-04-24 23:02 45.93979 1.17367 24878 ft 377 kts 177°
2026-04-24 23:02 45.91329 1.17649 24459 ft 376 kts 177°
2026-04-24 23:02 45.88729 1.17930 24046 ft 374 kts 177°
2026-04-24 23:03 45.86136 1.18212 23596 ft 373 kts 178°
2026-04-24 23:03 45.83553 1.18491 23131 ft 371 kts 178°
2026-04-24 23:03 45.80984 1.18768 22689 ft 369 kts 178°
2026-04-24 23:03 45.78434 1.19042 22248 ft 367 kts 178°
2026-04-24 23:04 45.75891 1.19310 21806 ft 365 kts 178°
2026-04-24 23:04 45.73357 1.19579 21365 ft 364 kts 178°
2026-04-24 23:04 45.70840 1.19844 20919 ft 362 kts 178°
2026-04-24 23:04 45.68328 1.20105 20479 ft 361 kts 178°
2026-04-24 23:05 45.65826 1.20366 20039 ft 360 kts 178°
2026-04-24 23:05 45.63326 1.20628 19595 ft 360 kts 178°
2026-04-24 23:05 45.60829 1.20892 19149 ft 359 kts 178°
2026-04-24 23:05 45.58341 1.21156 18714 ft 359 kts 178°
2026-04-24 23:06 45.55854 1.21420 18239 ft 358 kts 178°
2026-04-24 23:06 45.53372 1.21681 17779 ft 357 kts 178°
2026-04-24 23:06 45.50902 1.21942 17342 ft 355 kts 178°
2026-04-24 23:06 45.48452 1.22200 16900 ft 353 kts 178°
2026-04-24 23:07 45.46007 1.22460 16461 ft 351 kts 178°
2026-04-24 23:07 45.43576 1.22723 16022 ft 350 kts 178°
2026-04-24 23:07 45.41154 1.22982 15588 ft 349 kts 178°
2026-04-24 23:07 45.38741 1.23237 15157 ft 347 kts 178°
2026-04-24 23:08 45.36333 1.23487 14723 ft 346 kts 178°
2026-04-24 23:08 45.33946 1.23348 14286 ft 342 kts 193°
2026-04-24 23:08 45.31694 1.22381 13863 ft 337 kts 207°
2026-04-24 23:08 45.29664 1.20779 13407 ft 333 kts 213°
2026-04-24 23:09 45.27680 1.19110 13004 ft 330 kts 213°
2026-04-24 23:09 45.25684 1.17437 12584 ft 328 kts 213°
2026-04-24 23:09 45.23727 1.15798 12174 ft 326 kts 213°
2026-04-24 23:09 45.21789 1.14180 11922 ft 319 kts 212°
2026-04-24 23:10 45.19911 1.12616 11794 ft 308 kts 212°
2026-04-24 23:10 45.18090 1.11100 11573 ft 302 kts 212°
2026-04-24 23:10 45.16283 1.09594 11265 ft 299 kts 212°
2026-04-24 23:10 45.14502 1.08108 10826 ft 294 kts 212°
2026-04-24 23:11 45.12748 1.06644 10234 ft 292 kts 212°
2026-04-24 23:11 45.11009 1.05194 9624 ft 289 kts 212°
2026-04-24 23:11 45.09294 1.03764 9120 ft 282 kts 212°
2026-04-24 23:11 45.07607 1.02363 8748 ft 281 kts 212°
2026-04-24 23:12 45.05921 1.00964 8370 ft 282 kts 212°
2026-04-24 23:12 45.04227 0.99557 7933 ft 279 kts 211°
2026-04-24 23:12 45.02583 0.98195 7577 ft 269 kts 211°
2026-04-24 23:12 45.00998 0.96883 7241 ft 260 kts 211°
2026-04-24 23:13 44.99448 0.95606 6870 ft 257 kts 210°
2026-04-24 23:13 44.97846 0.94345 6169 ft 268 kts 210°
2026-04-24 23:13 44.96193 0.93085 5450 ft 272 kts 209°
2026-04-24 23:13 44.94517 0.91818 4806 ft 273 kts 209°
2026-04-24 23:14 44.92852 0.90559 4226 ft 270 kts 209°
2026-04-24 23:14 44.91219 0.89322 3746 ft 264 kts 209°
2026-04-24 23:14 44.89600 0.88091 3237 ft 260 kts 209°
2026-04-24 23:14 44.88055 0.86917 3042 ft 244 kts 209°
2026-04-24 23:15 44.86620 0.85826 2921 ft 224 kts 209°
2026-04-24 23:15 44.85303 0.84830 2825 ft 206 kts 209°
2026-04-24 23:15 44.84085 0.83907 2768 ft 194 kts 209°
2026-04-24 23:15 44.82915 0.83019 2667 ft 189 kts 210°
2026-04-24 23:16 44.81887 0.81908 2564 ft 186 kts 229°
2026-04-24 23:16 44.81213 0.80352 2518 ft 184 kts 250°
2026-04-24 23:16 44.80984 0.78586 2518 ft 185 kts 270°
2026-04-24 23:16 44.81075 0.76783 2517 ft 185 kts 274°
2026-04-24 23:17 44.81178 0.74983 2517 ft 184 kts 275°
2026-04-24 23:17 44.81279 0.73182 2512 ft 184 kts 275°
2026-04-24 23:17 44.81380 0.71390 2506 ft 183 kts 275°
2026-04-24 23:17 44.81474 0.69692 2421 ft 165 kts 275°
2026-04-24 23:18 44.81559 0.68160 2249 ft 150 kts 275°
2026-04-24 23:18 44.81639 0.66720 2068 ft 145 kts 276°
2026-04-24 23:18 44.81717 0.65321 1891 ft 142 kts 276°
2026-04-24 23:18 44.81793 0.63945 1703 ft 140 kts 276°
2026-04-24 23:19 44.81869 0.62565 1512 ft 139 kts 276°
2026-04-24 23:19 44.81943 0.61211 1334 ft 139 kts 275°
2026-04-24 23:19 44.82018 0.59860 1141 ft 139 kts 274°
2026-04-24 23:19 44.82092 0.58494 959 ft 139 kts 275°
2026-04-24 23:20 44.82166 0.57146 774 ft 137 kts 274°
2026-04-24 23:20 44.82239 0.55804 597 ft 137 kts 274°
2026-04-24 23:20 44.82312 0.54460 416 ft 137 kts 273°
2026-04-24 23:20 44.82384 0.53123 209 ft 136 kts 273°
2026-04-24 23:21 44.82445 0.51957 179 ft 84 kts 275°
2026-04-24 23:21 44.82474 0.51470 178 ft 37 kts 274°
2026-04-24 23:21 44.82492 0.51145 177 ft 30 kts 274°
2026-04-24 23:21 44.82504 0.50929 179 ft 19 kts 274°
2026-04-24 23:22 44.82514 0.50728 177 ft 21 kts 275°
2026-04-24 23:22 44.82430 0.50661 177 ft 17 kts 184°
2026-04-24 23:22 44.82354 0.50703 177 ft 13 kts 107°
2026-04-24 23:22 44.82346 0.50837 177 ft 14 kts 94°
2026-04-24 23:23 44.82338 0.50991 177 ft 17 kts 95°
2026-04-24 23:23 44.82328 0.51168 177 ft 19 kts 94°
2026-04-24 23:23 44.82318 0.51355 177 ft 17 kts 94°
2026-04-24 23:23 44.82310 0.51511 177 ft 16 kts 94°
2026-04-24 23:24 44.82304 0.51630 177 ft 8 kts 95°
2026-04-24 23:24 44.82266 0.51650 177 ft 2 kts 185°
2026-04-24 23:24 44.82260 0.51637 177 ft 2 kts 257°
2026-04-24 23:24 44.82266 0.51623 177 ft 0 kts 308°